EW3370 Weather Reports


Display with metric or nautical units.
time (UTC)temp
F
wind
direction
speed
MPH
gust
MPH
rain 1hr
in
rain 24hr
in
rain mn
in
humidity
%
barometer
mb
20260905025539 70 229 0.0 4.0 0.00 0.00 0.00 82 1011.5
20260905025026 70 229 0.0 4.0 0.00 0.00 0.00 82 1011.5
20260905024552 70 235 0.0 4.0 0.00 0.00 0.00 81 1011.5
20260905024034 70 254 0.0 3.0 0.00 0.00 0.00 81 1011.5
20260905023538 70 254 0.0 3.0 0.00 0.00 0.00 80 1011.5
20260905023025 70 242 1.0 4.0 0.00 0.00 0.00 80 1011.4
20260905022528 70 225 0.0 4.0 0.00 0.00 0.00 80 1011.5
20260905022033 71 223 0.0 3.0 0.00 0.00 0.00 80 1011.6
20260905021543 71 223 1.0 3.0 0.00 0.00 0.00 79 1011.6
20260905021027 71 229 0.0 3.0 0.00 0.00 0.00 78 1011.6
20260905020534 71 260 1.0 3.0 0.00 0.00 0.00 78 1011.5
20260905020039 71 250 0.0 5.0 0.00 0.00 0.00 77 1011.4
20260905015522 72 272 2.0 5.0 0.00 0.00 0.00 77 1011.4
20260905015025 72 245 1.0 5.0 0.00 0.00 0.00 77 1011.4
20260905014531 72 209 1.0 5.0 0.00 0.00 0.00 76 1011.3
20260905014059 72 219 1.0 4.0 0.00 0.00 0.00 76 1011.4
20260905013522 73 217 1.0 5.0 0.00 0.00 0.00 75 1011.3
20260905013027 73 229 1.0 5.0 0.00 0.00 0.00 74 1011.3
20260905012530 73 263 1.0 5.0 0.00 0.00 0.00 74 1011.3
20260905012032 74 207 2.0 5.0 0.00 0.00 0.00 74 1011.4
20260905011518 74 210 0.0 5.0 0.00 0.00 0.00 74 1011.4
20260905011024 74 228 3.0 5.0 0.00 0.00 0.00 72 1011.4
20260905010522 75 227 3.0 5.0 0.00 0.00 0.00 71 1011.4
20260905010021 76 221 2.0 5.0 0.00 0.00 0.00 70 1011.4
20260905005548 76 223 3.0 6.0 0.00 0.00 0.00 69 1011.4
20260905005027 76 214 2.0 6.0 0.00 0.00 0.00 70 1011.5
20260905004531 76 217 2.0 5.0 0.00 0.00 0.00 69 1011.4
20260905004054 77 205 3.0 6.0 0.00 0.00 0.00 69 1011.4
20260905003539 77 250 4.0 6.0 0.00 0.00 0.00 68 1011.5
20260905003027 77 212 2.0 7.0 0.00 0.00 0.00 69 1011.6
20260905002533 76 215 2.0 7.0 0.00 0.00 0.00 69 1011.6
20260905002042 76 196 4.0 7.0 0.00 0.00 0.00 69 1011.6
20260905001525 77 302 3.0 7.0 0.00 0.00 0.00 69 1011.5
20260905001029 77 267 3.0 7.0 0.00 0.00 0.00 68 1011.6
20260905000532 77 210 4.0 7.0 0.00 0.00 0.00 67 1011.5
20260905000035 77 219 3.0 7.0 0.00 0.00 0.00 67 1011.6
20260904235520 78 286 4.0 7.0 0.00 0.00 0.00 67 1011.7
20260904235023 78 216 3.0 8.0 0.00 0.00 0.00 67 1011.6
20260904234526 78 188 4.0 9.0 0.00 0.00 0.00 67 1011.6
20260904234029 78 244 3.0 9.0 0.00 0.00 0.00 66 1011.7
20260904233532 78 205 4.0 9.0 0.00 0.00 0.00 66 1011.8
20260904233033 78 207 3.0 8.0 0.00 0.00 0.00 65 1011.7
20260904232555 78 202 3.0 7.0 0.00 0.00 0.00 66 1011.7
20260904232055 78 206 4.0 7.0 0.00 0.00 0.00 66 1011.7
20260904231537 79 219 4.0 10.0 0.00 0.00 0.00 65 1011.7
20260904231020 79 253 4.0 10.0 0.00 0.00 0.00 63 1011.7
20260904230525 79 225 3.0 7.0 0.00 0.00 0.00 65 1011.8
20260904230031 79 258 2.0 7.0 0.00 0.00 0.00 65 1011.9
20260904225525 80 257 4.0 8.0 0.00 0.00 0.00 63 1011.8
20260904225046 80 236 3.0 8.0 0.00 0.00 0.00 62 1011.8
20260904224524 80 244 4.0 7.0 0.00 0.00 0.00 62 1011.9
20260904224021 80 236 3.0 7.0 0.00 0.00 0.00 62 1012.0
20260904223520 80 238 3.0 8.0 0.00 0.00 0.00 62 1011.9
20260904223038 80 213 4.0 8.0 0.00 0.00 0.00 62 1012.0
20260904222535 80 271 3.0 8.0 0.00 0.00 0.00 62 1012.1
20260904222035 80 202 4.0 7.0 0.00 0.00 0.00 62 1012.1
20260904221537 80 269 4.0 7.0 0.00 0.00 0.00 62 1012.1
20260904221034 80 209 4.0 7.0 0.00 0.00 0.00 62 1012.1
20260904220532 80 209 4.0 8.0 0.00 0.00 0.00 62 1012.2
20260904220033 80 202 3.0 8.0 0.00 0.00 0.00 62 1012.2
20260904215532 80 203 4.0 8.0 0.00 0.00 0.00 63 1012.1
20260904215033 80 213 4.0 7.0 0.00 0.00 0.00 63 1012.2
20260904214532 79 211 3.0 11.0 0.00 0.00 0.00 63 1012.3
20260904214031 79 233 4.0 11.0 0.00 0.00 0.00 63 1012.3
20260904213534 79 215 5.0 11.0 0.00 0.00 0.00 64 1012.3
20260904213034 79 223 4.0 9.0 0.00 0.00 0.00 63 1012.2
20260904212551 79 202 4.0 8.0 0.00 0.00 0.00 62 1012.3
20260904212026 79 227 4.0 8.0 0.00 0.00 0.00 63 1012.3
20260904211526 79 206 4.0 8.0 0.00 0.00 0.00 64 1012.3
20260904211023 79 194 4.0 8.0 0.00 0.00 0.00 63 1012.4
20260904210538 79 226 5.0 9.0 0.00 0.00 0.00 62 1012.3
20260904210039 80 240 4.0 9.0 0.00 0.00 0.00 61 1012.4
20260904205520 80 225 4.0 9.0 0.00 0.00 0.00 61 1012.5
20260904205039 80 208 3.0 9.0 0.00 0.00 0.00 61 1012.5
20260904204534 80 195 3.0 9.0 0.00 0.00 0.00 61 1012.5
20260904204055 80 243 3.0 9.0 0.00 0.00 0.00 62 1012.5
20260904203532 80 238 3.0 9.0 0.00 0.00 0.00 61 1012.5
20260904203034 80 199 4.0 9.0 0.00 0.00 0.00 62 1012.4
20260904202534 80 212 4.0 8.0 0.00 0.00 0.00 62 1012.5
20260904202030 80 246 4.0 8.0 0.00 0.00 0.00 62 1012.6
20260904201550 80 239 2.0 8.0 0.00 0.00 0.00 63 1012.6
20260904201030 80 193 3.0 8.0 0.00 0.00 0.00 63 1012.6
20260904200530 79 231 4.0 9.0 0.00 0.00 0.00 63 1012.6
20260904200031 79 218 3.0 9.0 0.00 0.00 0.00 64 1012.6
20260904195525 79 192 5.0 8.0 0.00 0.00 0.00 64 1012.5
20260904195024 79 205 4.0 7.0 0.00 0.00 0.00 64 1012.6
20260904194520 79 215 4.0 7.0 0.00 0.00 0.00 64 1012.6
20260904194035 79 260 3.0 7.0 0.00 0.00 0.00 64 1012.6
20260904193529 79 215 3.0 7.0 0.00 0.00 0.00 63 1012.6
20260904193029 79 269 4.0 7.0 0.00 0.00 0.00 63 1012.8
20260904192537 79 198 3.0 7.0 0.00 0.00 0.00 64 1012.9
20260904192037 78 289 2.0 7.0 0.00 0.00 0.00 65 1013.0
20260904191536 78 211 4.0 7.0 0.00 0.00 0.00 65 1013.0
20260904191035 78 233 2.0 8.0 0.00 0.00 0.00 65 1013.1
20260904190536 78 226 3.0 8.0 0.00 0.00 0.00 65 1013.1
20260904190034 79 213 3.0 7.0 0.00 0.00 0.00 64 1013.1
20260904185532 79 237 3.0 10.0 0.00 0.00 0.00 63 1013.2
20260904185030 79 213 3.0 10.0 0.00 0.00 0.00 63 1013.3
20260904184524 79 203 2.0 7.0 0.00 0.00 0.00 64 1013.3
20260904184026 78 236 2.0 7.0 0.00 0.00 0.00 64 1013.4
20260904183529 78 205 2.0 8.0 0.00 0.00 0.00 65 1013.4
20260904183028 78 193 2.0 7.0 0.00 0.00 0.00 65 1013.3
20260904182528 78 209 3.0 7.0 0.00 0.00 0.00 65 1013.4
20260904182034 77 207 3.0 7.0 0.00 0.00 0.00 65 1013.4
20260904181535 77 221 2.0 7.0 0.00 0.00 0.00 66 1013.4
20260904181055 77 211 4.0 7.0 0.00 0.00 0.00 65 1013.4
20260904180536 77 220 3.0 7.0 0.00 0.00 0.00 65 1013.3
20260904180030 77 223 3.0 7.0 0.00 0.00 0.00 65 1013.3
20260904175529 77 245 3.0 7.0 0.00 0.00 0.00 65 1013.4
20260904175030 77 207 2.0 6.0 0.00 0.00 0.00 65 1013.5
20260904174531 78 208 2.0 7.0 0.00 0.00 0.00 64 1013.4
20260904174051 78 186 0.0 7.0 0.00 0.00 0.00 65 1013.4
20260904173533 78 212 1.0 6.0 0.00 0.00 0.00 65 1013.5
20260904173031 77 219 1.0 6.0 0.00 0.00 0.00 65 1013.5
20260904172530 77 244 1.0 7.0 0.00 0.00 0.00 65 1013.5
20260904172032 76 223 1.0 7.0 0.00 0.00 0.00 66 1013.5
20260904171538 76 186 0.0 6.0 0.00 0.00 0.00 67 1013.6
20260904171036 76 203 2.0 6.0 0.00 0.00 0.00 67 1013.5
20260904170530 75 157 1.0 5.0 0.00 0.00 0.00 68 1013.5
20260904170027 75 205 1.0 4.0 0.00 0.00 0.00 68 1013.5
20260904165531 75 203 1.0 5.0 0.00 0.00 0.00 69 1013.4
20260904165033 75 207 1.0 8.0 0.00 0.00 0.00 69 1013.4
20260904164536 75 202 2.0 8.0 0.00 0.00 0.00 68 1013.4
20260904164038 75 211 1.0 4.0 0.00 0.00 0.00 69 1013.4
20260904163537 74 209 0.0 4.0 0.00 0.00 0.00 70 1013.2
20260904163019 73 224 1.0 4.0 0.00 0.00 0.00 71 1013.2
20260904162519 73 20 0.0 0.0 0.00 0.00 0.00 71 1013.1
20260904162020 73 24 0.0 0.0 0.00 0.00 0.00 70 1013.1
20260904161641 73 24 0.0 4.0 0.00 0.00 0.00 70 1013.1
20260904161027 73 24 0.0 4.0 0.00 0.00 0.00 71 1013.1
20260904160526 72 81 0.0 3.0 0.00 0.00 0.00 72 1013.0
20260904160026 72 80 0.0 1.0 0.00 0.00 0.00 74 1012.9
20260904155530 71 80 0.0 2.0 0.00 0.00 0.00 75 1012.9
20260904155028 71 80 0.0 4.0 0.00 0.00 0.00 76 1012.8
20260904154527 71 80 0.0 4.0 0.00 0.00 0.00 77 1012.8
20260904154028 70 79 1.0 5.0 0.00 0.00 0.00 77 1012.8
20260904153531 70 94 1.0 5.0 0.00 0.00 0.00 78 1012.8
20260904153053 70 90 0.0 5.0 0.00 0.00 0.00 77 1012.7
20260904152553 70 91 1.0 5.0 0.00 0.00 0.00 78 1012.7
20260904152032 69 95 1.0 5.0 0.00 0.00 0.00 78 1012.8
20260904151530 69 97 1.0 5.0 0.00 0.00 0.00 80 1012.7
20260904151030 69 67 0.0 4.0 0.00 0.00 0.00 81 1012.7
20260904150550 68 51 1.0 4.0 0.00 0.00 0.00 81 1012.8
20260904150026 68 55 0.0 0.0 0.00 0.00 0.00 82 1012.7
20260904145546 67 52 0.0 0.0 0.00 0.00 0.00 83 1012.6
20260904145045 67 53 0.0 0.0 0.00 0.00 0.00 84 1012.6
20260904144526 67 53 0.0 0.0 0.00 0.00 0.00 84 1012.6
20260904144029 66 56 0.0 0.0 0.00 0.00 0.00 85 1012.6
20260904143530 66 55 0.0 0.0 0.00 0.00 0.00 85 1012.6
20260904143026 66 55 0.0 0.0 0.00 0.00 0.00 85 1012.6
20260904142522 66 56 0.0 0.0 0.00 0.00 0.00 85 1012.5
20260904142023 66 56 0.0 0.0 0.00 0.00 0.00 85 1012.5
20260904141525 65 57 0.0 0.0 0.00 0.00 0.00 86 1012.4
20260904141022 65 57 0.0 0.0 0.00 0.00 0.00 86 1012.4
20260904140524 65 57 0.0 0.0 0.00 0.00 0.00 86 1012.3
20260904140025 65 57 0.0 0.0 0.00 0.00 0.00 86 1012.3
20260904135523 65 58 0.0 0.0 0.00 0.00 0.00 86 1012.3
20260904135020 65 58 0.0 0.0 0.00 0.00 0.00 87 1012.2
20260904134518 64 59 0.0 0.0 0.00 0.00 0.00 87 1012.2
20260904134022 64 59 0.0 0.0 0.00 0.00 0.00 87 1012.1
20260904133545 64 60 0.0 0.0 0.00 0.00 0.00 87 1012.1
20260904133026 64 61 0.0 0.0 0.00 0.00 0.00 87 1012.1
20260904132522 64 61 0.0 0.0 0.00 0.00 0.00 87 1012.0
20260904132020 64 60 0.0 3.0 0.00 0.00 0.00 88 1012.0
20260904131519 64 60 0.0 4.0 0.00 0.00 0.00 87 1011.9
20260904131018 64 61 2.0 4.0 0.00 0.00 0.00 88 1012.0
20260904130521 64 60 0.0 0.0 0.00 0.00 0.00 88 1011.9
20260904130019 64 60 0.0 0.0 0.00 0.00 0.00 88 1011.9
20260904125542 64 60 0.0 0.0 0.00 0.00 0.00 88 1011.9
20260904125024 64 60 0.0 4.0 0.00 0.00 0.00 88 1011.8
20260904124547 64 60 0.0 5.0 0.00 0.00 0.00 88 1011.8
20260904124029 64 60 1.0 5.0 0.00 0.00 0.00 88 1011.8
20260904123533 63 60 2.0 5.0 0.00 0.00 0.00 88 1011.8
20260904123038 63 58 0.0 0.0 0.00 0.00 0.00 88 1011.7
20260904122519 64 58 0.0 0.0 0.00 0.00 0.00 87 1011.7
20260904122024 64 58 0.0 0.0 0.00 0.00 0.00 87 1011.7
20260904121529 64 58 0.0 0.0 0.00 0.00 0.00 87 1011.7
20260904121034 64 57 0.0 0.0 0.00 0.00 0.00 87 1011.7
20260904120535 64 57 0.0 0.0 0.00 0.00 0.00 86 1011.7
20260904120021 64 57 0.0 0.0 0.00 0.00 0.00 86 1011.8
20260904115550 64 59 0.0 0.0 0.00 0.00 0.00 86 1011.8
20260904115034 64 65 0.0 0.0 0.00 0.00 0.00 86 1011.8
20260904114538 64 65 0.0 0.0 0.00 0.00 0.00 86 1011.8
20260904114021 65 65 0.0 0.0 0.00 0.00 0.00 86 1011.9
20260904113527 65 65 0.0 0.0 0.00 0.00 0.00 86 1011.9
20260904113033 65 65 0.0 0.0 0.00 0.00 0.00 86 1011.9
20260904112538 64 64 0.0 0.0 0.00 0.00 0.00 86 1011.9
20260904112021 64 63 0.0 0.0 0.00 0.00 0.00 86 1011.9
20260904111532 64 63 0.0 0.0 0.00 0.00 0.00 87 1011.9
20260904111057 64 64 0.0 0.0 0.00 0.00 0.00 87 1012.0
20260904110519 64 64 0.0 0.0 0.00 0.00 0.00 87 1011.9
20260904110020 64 65 0.0 0.0 0.00 0.00 0.00 87 1011.9
20260904105526 64 65 0.0 0.0 0.00 0.00 0.00 87 1011.9
20260904105030 64 65 0.0 0.0 0.00 0.00 0.00 87 1011.8
20260904104532 64 65 0.0 5.0 0.00 0.00 0.00 87 1011.8
20260904104037 64 65 0.0 5.0 0.00 0.00 0.00 87 1011.7
20260904103519 64 69 2.0 5.0 0.00 0.00 0.00 87 1011.7
20260904103023 64 76 0.0 3.0 0.00 0.00 0.00 88 1011.7
20260904102529 64 76 0.0 3.0 0.00 0.00 0.00 88 1011.7
20260904102030 64 77 0.0 0.0 0.00 0.00 0.00 88 1011.6
20260904101518 64 77 0.0 5.0 0.00 0.00 0.00 88 1011.7
20260904101027 63 78 1.0 5.0 0.00 0.00 0.00 88 1011.6
20260904100530 63 80 2.0 5.0 0.00 0.00 0.00 88 1011.6
20260904100033 63 80 2.0 7.0 0.00 0.00 0.00 88 1011.6
20260904095521 63 69 3.0 7.0 0.00 0.00 0.00 88 1011.6
20260904095022 63 97 1.0 5.0 0.00 0.00 0.00 88 1011.5
20260904094523 63 127 1.0 3.0 0.00 0.00 0.00 88 1011.5
20260904094031 63 128 0.0 3.0 0.00 0.00 0.00 88 1011.6
20260904093519 63 128 0.0 3.0 0.00 0.00 0.00 88 1011.7
20260904093044 63 128 0.0 3.0 0.00 0.00 0.00 88 1011.7
20260904092525 63 128 0.0 2.0 0.00 0.00 0.00 88 1011.7
20260904092029 63 128 0.0 0.0 0.00 0.00 0.00 88 1011.6
20260904091533 63 128 0.0 0.0 0.00 0.00 0.00 88 1011.6
20260904091018 63 128 0.0 0.0 0.00 0.00 0.00 88 1011.6
20260904090526 63 128 0.0 0.0 0.00 0.00 0.00 88 1011.6
20260904090036 63 128 0.0 0.0 0.00 0.00 0.00 87 1011.6
20260904085519 63 128 0.0 0.0 0.00 0.00 0.00 87 1011.6
20260904085019 64 128 0.0 0.0 0.00 0.00 0.00 87 1011.7
20260904084520 64 128 0.0 0.0 0.00 0.00 0.00 87 1011.7
20260904084022 64 128 0.0 1.0 0.00 0.00 0.00 87 1011.7
20260904083527 64 128 0.0 3.0 0.00 0.00 0.00 87 1011.7
20260904083028 64 127 1.0 3.0 0.00 0.00 0.00 86 1011.8
20260904082534 64 192 0.0 0.0 0.00 0.00 0.00 87 1011.8
20260904082040 64 192 0.0 0.0 0.00 0.00 0.00 86 1011.9
20260904081518 64 192 0.0 0.0 0.00 0.00 0.00 86 1011.8
20260904081020 65 192 0.0 0.0 0.00 0.00 0.00 86 1011.9
20260904080523 65 192 0.0 0.0 0.00 0.00 0.00 86 1012.0
20260904080032 65 192 0.0 0.0 0.00 0.00 0.00 86 1011.9
20260904075556 65 192 0.0 0.0 0.00 0.00 0.00 86 1012.0
20260904075020 65 192 0.0 0.0 0.00 0.00 0.00 85 1012.1
20260904074523 66 192 0.0 0.0 0.00 0.00 0.00 86 1012.0
20260904074025 66 192 0.0 0.0 0.00 0.00 0.00 86 1011.9
20260904073533 66 192 0.0 0.0 0.00 0.00 0.00 86 1011.9
20260904073038 66 194 0.0 0.0 0.00 0.00 0.00 86 1012.0
20260904072519 66 194 0.0 0.0 0.00 0.00 0.00 86 1012.0
20260904072022 66 197 0.0 0.0 0.00 0.00 0.00 86 1012.0
20260904071524 66 197 0.0 0.0 0.00 0.00 0.00 86 1012.0
20260904071028 66 197 0.0 0.0 0.00 0.00 0.00 87 1012.0
20260904070534 66 197 0.0 0.0 0.00 0.00 0.00 87 1011.9
20260904070025 66 197 0.0 0.0 0.00 0.00 0.00 87 1011.9
20260904065528 65 197 0.0 0.0 0.00 0.00 0.00 88 1012.0
20260904065031 65 197 0.0 0.0 0.00 0.00 0.00 88 1012.0
20260904064535 65 197 0.0 0.0 0.00 0.00 0.00 88 1012.0
20260904064020 65 197 0.0 0.0 0.00 0.00 0.00 88 1011.9
20260904063520 65 197 0.0 0.0 0.00 0.00 0.00 88 1011.9
20260904063023 65 196 0.0 0.0 0.00 0.00 0.00 88 1011.9
20260904062525 65 196 0.0 0.0 0.00 0.00 0.00 88 1011.8
20260904062029 65 196 0.0 0.0 0.00 0.00 0.00 88 1011.8
20260904061537 65 196 0.0 0.0 0.00 0.00 0.00 88 1011.8
20260904061019 65 196 0.0 0.0 0.00 0.00 0.00 88 1011.7
20260904060529 65 196 0.0 0.0 0.00 0.00 0.00 87 1011.7
20260904060052 65 196 0.0 0.0 0.00 0.00 0.00 87 1011.8
20260904055537 65 196 0.0 0.0 0.00 0.00 0.00 86 1011.7
20260904055020 65 196 0.0 0.0 0.00 0.00 0.00 86 1011.8
20260904054524 66 196 0.0 0.0 0.00 0.00 0.00 86 1011.7
20260904054027 66 196 0.0 0.0 0.00 0.00 0.00 86 1011.8
20260904053528 66 196 0.0 0.0 0.00 0.00 0.00 86 1011.8
20260904053035 66 196 0.0 0.0 0.00 0.00 0.00 85 1011.8
20260904052518 66 196 0.0 0.0 0.00 0.00 0.00 86 1011.8
20260904052018 66 195 0.0 0.0 0.00 0.00 0.00 85 1011.8
20260904051527 66 195 0.0 0.0 0.00 0.00 0.00 85 1011.9
20260904051026 66 195 0.0 0.0 0.00 0.00 0.00 85 1012.0
20260904050529 66 195 0.0 0.0 0.00 0.00 0.00 84 1012.0
20260904050041 67 195 0.0 0.0 0.00 0.00 0.00 84 1012.0
20260904045525 67 194 0.0 0.0 0.00 0.00 0.00 84 1012.0
20260904045034 67 194 0.0 0.0 0.00 0.00 0.00 84 1012.0
20260904044540 67 194 0.0 0.0 0.00 0.00 0.00 84 1011.9
20260904044022 67 194 0.0 0.0 0.00 0.00 0.00 83 1012.0
20260904043528 67 194 0.0 0.0 0.00 0.00 0.00 83 1011.9
20260904043029 67 194 0.0 1.0 0.00 0.00 0.00 84 1011.9
20260904042529 67 194 0.0 1.0 0.00 0.00 0.00 84 1011.9
20260904042034 68 194 0.0 1.0 0.00 0.00 0.00 84 1012.0
20260904041537 68 194 0.0 1.0 0.00 0.00 0.00 83 1012.0
20260904041046 68 194 0.0 1.0 0.00 0.00 0.00 83 1011.9
20260904040525 68 195 0.0 2.0 0.00 0.00 0.00 83 1011.9
20260904040030 68 195 0.0 2.0 0.00 0.00 0.00 83 1011.8
20260904035528 68 195 0.0 0.0 0.00 0.00 0.00 83 1011.8
20260904035037 68 195 0.0 0.0 0.00 0.00 0.00 83 1011.8
20260904034541 68 195 0.0 0.0 0.00 0.00 0.00 83 1011.7
20260904034023 68 195 0.0 0.0 0.00 0.00 0.00 82 1011.6
20260904033528 68 196 0.0 3.0 0.00 0.00 0.00 83 1011.5
20260904033032 68 195 0.0 3.0 0.00 0.00 0.00 82 1011.5
20260904032518 68 197 0.0 1.0 0.00 0.00 0.00 82 1011.4
20260904032028 68 197 0.0 1.0 0.00 0.00 0.00 82 1011.4
20260904031530 68 197 0.0 1.0 0.00 0.00 0.00 81 1011.2
20260904031032 69 198 0.0 2.0 0.00 0.00 0.00 81 1011.2
20260904030535 69 198 0.0 2.0 0.00 0.00 0.00 81 1011.3
20260904030036 69 198 0.0 4.0 0.00 0.00 0.00 81 1011.3